Location: Unnamed
(48.6007°N, 2.4808°E)
Time: 09:06:58
(UTC+02:00)

PCSat - Pass Details

Date: 02 April 2023
Orbit: 783 x 794 km, 67.1° (Epoch: 29 May)

Event Time Altitude Azimuth Distance (km) Brightness Sun altitude
Rises 01:05:34 0° 326° (NW) 3,302 13.7 -35.6°
Reaches altitude 10° 01:08:00 10° 328° (NNW) 2,370 12.7 -35.7°
Enters shadow 01:10:55 32° 336° (NNW) 1,332 11.1 -35.8°
